{"data":{"norad_id":66669,"intl_designator":"2025-276D","name":"TRANSPORTER-15 OBJECT D","alt_names":[],"object_type":"PAYLOAD","status":"ACTIVE","operator":null,"country":"TBD","launch_date":"2025-11-28","launch_site_code":"AFWTR","launch_vehicle":null,"mission":null,"orbit_class":"UNKNOWN","rcs_meters":null,"size_class":null,"mass_kg":null,"dimensions":null,"purposes":[],"wikipedia_slug":null,"has_3d_model":false,"image_url":null,"decayed_at":null,"tle_current":{"epoch":"2026-05-25T03:48:15.593184Z","epoch_age_seconds":51581,"freshness":"FRESH","line1":"1 66669U 25276D   26145.15851381  .00027049  00000+0  10514-2 0  9999","line2":"2 66669  97.4074 219.5569 0008297 100.3279 259.8895 15.25987524 26979","mean_motion":15.25987524,"eccentricity":0.0008297,"inclination_deg":97.4074,"raan_deg":219.5569,"arg_perigee_deg":100.3279,"mean_anomaly_deg":259.8895,"bstar":0.0010514,"rev_number":2697,"period_min":94.36512273871,"perigee_km":482.12500251191,"apogee_km":493.5183743595,"semimajor_km":6865.9586884357,"source":"CELESTRAK","updated_at":"2026-05-25T13:38:06.384489Z"}}}